[[{"header":{"parameterUnit":"m.s-1","parameterCategory":1,"la1":30.2991,"la2":30.254,"lo1":-89.0895,"lo2":-89.0444,"dy":0.0017,"dx":0.0017,"nx":28,"ny":28,"refTime":"2023-10-21T09:00:00:Z","depth":0,"parameterNumber":2,"parameterNumberName":"U-component_of_WINDS"},"data":[0,0,0,0,0,0,0,0,0,0,0,0,0,0,0,0,0,0,0,0,0,0,0,0,0,0,0,0,0,0,0,0,0,0,0,0,0,0,0,0,0,0,0,0,0,0,0,0,0,0,0,0,0,0,0,0,0,0,-2.7214,-2.7215,0,-2.7238,-2.7238,-2.7238,-2.7139,-2.7136,-2.7133,-2.713,-2.7155,-2.7159,-2.7162,0,0,0,0,0,0,0,0,0,0,0,0,0,-2.7084,-2.7087,-2.7214,-2.7215,-2.7215,-2.7238,-2.7238,-2.7238,-2.7139,-2.7136,-2.7132,-2.7129,-2.7154,-2.7158,-2.7162,0,0,0,0,0,0,0,0,0,0,0,0,0,-2.7127,-2.7088,-2.7214,-2.7168,-2.7164,-2.7238,-2.7238,-2.7238,-2.714,-2.7136,-2.7131,-2.7127,-2.7153,-2.7158,-2.7163,-2.7282,0,0,-2.7179,-2.7181,0,0,0,0,0,0,0,0,-2.7125,-2.7132,-2.7175,-2.7171,-2.7167,-2.7181,-2.7201,-2.7253,-2.7141,-2.7149,-2.713,-2.7125,-2.7168,-2.7171,-2.7185,-2.7283,-2.7284,-2.7179,-2.7182,-2.7184,-2.7186,0,0,0,0,0,0,0,-2.7122,-2.7131,-2.7223,-2.7175,-2.7171,-2.7146,-2.7148,-2.7211,-2.7183,-2.7148,-2.7141,-2.7145,-2.7165,-2.7181,-2.7185,-2.7285,-2.7179,-2.7183,-2.7187,-2.7189,-2.7481,-2.7485,0,0,0,0,0,0,-2.7125,-2.7129,-2.7223,-2.7224,-2.7135,-2.7152,-2.7154,-2.7181,-2.7182,-2.7178,-2.7149,-2.714,-2.7174,-2.7179,-2.7186,-2.7325,-2.7184,-2.7189,-2.7192,-2.7476,-2.7482,-2.7487,0,0,0,0,0,0,-2.7123,-2.7135,-2.7222,-2.7175,-2.7184,-2.7159,-2.7191,-2.7184,-2.7199,-2.7182,-2.7177,-2.717,-2.7171,-2.7178,-2.7259,-2.7325,-2.7191,-2.7196,-2.7471,-2.7478,-2.7485,-2.7605,0,0,0,0,0,0,-2.712,-2.7134,-2.7179,-2.7176,-2.7187,-2.7295,-2.7195,-2.7187,-2.7208,-2.7198,-2.7201,-2.7197,-2.7168,-2.7252,-2.7264,-2.7329,-2.72,-2.7465,-2.7474,-2.7482,-2.7595,-2.7616,-2.7633,0,0,0,0,0,-2.7115,-2.7213,-2.7182,-2.7194,-2.7243,-2.7299,-2.7305,-2.7269,-2.7214,-2.7259,-2.7248,-2.7197,-2.7315,-2.7261,-2.7273,-2.7342,-2.746,-2.7471,-2.7482,-2.7587,-2.7612,-2.7633,0,0,0,0,0,0,-2.7225,-2.7212,-2.7178,-2.7277,-2.729,-2.7282,-2.7338,-2.7296,-2.7325,-2.7314,-2.7268,-2.727,-2.7358,-2.7357,-2.7297,-2.7456,-2.7378,-2.7392,-2.7454,-2.7477,-2.7496,-2.7495,-2.7204,0,0,0,0,0,-2.7261,-2.7307,-2.7293,-2.7382,-2.739,-2.7363,-2.7386,-2.7357,-2.7369,-2.7374,-2.7369,-2.7382,-2.7422,-2.7449,-2.7485,-2.7594,-2.7594,-2.7647,-2.7666,-2.7681,-2.7694,-2.7752,-2.7776,-2.7522,-2.7522,-2.7522,0,0,-2.7335,-2.7334,-2.7366,-2.7404,-2.7411,-2.746,-2.7369,-2.7425,-2.7461,-2.7383,-2.7458,-2.7455,-2.7466,-2.7562,-2.7603,-2.7564,-2.7764,-2.7695,-2.7708,-2.7712,-2.7765,-2.7789,-2.7811,-2.7529,-2.7528,-2.7527,0,0,-2.7496,-2.75,-2.7574,-2.7582,-2.7593,-2.7574,-2.7592,-2.759,-2.7585,-2.766,-2.7602,-2.7644,-2.7714,-2.7724,-2.7739,-2.7903,-2.7857,-2.7916,-2.8015,-2.8071,-2.8091,-2.8109,-2.8168,-2.819,-2.7928,-2.7929,-2.7929,0,-2.7588,-2.766,-2.7618,-2.7678,-2.7697,-2.7627,-2.7702,-2.7712,-2.7734,-2.7749,-2.7704,-2.7789,-2.7792,-2.7889,-2.7929,-2.7943,-2.7962,-2.7916,-2.8092,-2.8109,-2.8125,-2.8181,-2.8203,-2.7936,-2.7935,-2.7934,-2.7933,0,-2.7772,-2.7823,-2.7882,-2.7905,-2.7929,-2.7997,-2.7965,-2.7996,-2.7964,-2.795,-2.8027,-2.8028,-2.8062,-2.8083,-2.8053,-2.8175,-2.815,-2.81,-2.802,-2.8157,-2.8208,-2.8229,-2.7946,-2.7943,-2.7941,-2.7939,0,0,-2.8005,-2.8002,-2.8025,-2.8034,-2.804,-2.8079,-2.8143,-2.8176,-2.8203,-2.822,-2.8273,-2.8333,-2.8285,-2.8302,-2.8272,-2.8322,-2.8452,-2.8265,-2.8264,-2.83,-2.8588,-2.8627,-2.8652,-2.8421,-2.8425,-2.8428,-2.8587,0,-2.8164,-2.8273,-2.8237,-2.8348,-2.8394,-2.8328,-2.8383,-2.8393,-2.8381,-2.8419,-2.8405,-2.8449,-2.8383,-2.8392,-2.8438,-2.8427,-2.8509,-2.8414,-2.8471,-2.8473,-2.8471,-2.8679,-2.8721,-2.8871,-2.8607,-2.861,-2.8613,0,-2.8364,-2.8389,-2.8505,-2.8502,-2.852,-2.8571,-2.8598,-2.8634,-2.8644,-2.8632,-2.865,-2.8609,-2.8672,-2.8591,-2.8677,-2.8613,-2.8633,-2.8631,-2.8636,-2.8641,-2.8552,-2.8691,-2.8918,-2.8941,-2.8644,-2.8641,-2.8639,0,-2.8523,-2.8585,-2.8662,-2.8672,-2.8671,-2.8708,-2.8709,-2.8714,-2.8736,-2.876,-2.8774,-2.8805,-2.8822,-2.8847,-2.8815,-2.876,-2.8906,-2.8823,-2.8898,-2.8899,-2.8933,-2.8932,-2.9168,-2.8945,-2.8944,-2.8944,-2.8943,0,-2.8705,-2.8779,-2.8734,-2.8782,-2.8862,-2.8819,-2.89,-2.8893,-2.8898,-2.8943,-2.8887,-2.8931,-2.8886,-2.8926,-2.8901,-2.8976,-2.8984,-2.8976,-2.8969,-2.8982,-2.8983,-2.8996,-2.8985,-2.895,-2.8948,-2.8947,-2.8946,0,-2.8898,-2.887,-2.895,-2.8942,-2.8941,-2.9001,-2.8994,-2.9038,-2.9021,-2.9079,-2.909,-2.9064,-2.9108,-2.9078,-2.9122,-2.9106,-2.9204,-2.9182,-2.9201,-2.9196,-2.9273,-2.9266,-2.9526,-2.9558,-2.9314,-2.9316,-2.9318,0,-2.9016,-2.9071,-2.9068,-2.9094,-2.9099,-2.9142,-2.9164,-2.9123,-2.9148,-2.9162,-2.9205,-2.9243,-2.9272,-2.9344,-2.933,-2.9363,-2.9342,-2.943,-2.9346,-2.9358,-2.9344,-2.9342,-2.9347,-2.9448,-2.9451,-2.9453,-2.9455,0,-2.923,-2.9213,-2.9247,-2.9276,-2.9304,-2.9325,-2.9341,-2.9366,-2.9325,-2.9356,-2.9399,-2.9422,-2.9466,-2.9505,-2.9532,-2.9533,-2.9488,-2.9481,-2.9501,-2.9515,-2.9524,-2.9521,-2.9249,-2.9476,-2.9474,-2.9472,-2.9471,-2.947,-2.9389,-2.9435,-2.944,-2.948,-2.9487,-2.9504,-2.9544,-2.9532,-2.9568,-2.96,-2.9574,-2.9626,-2.9633,-2.9664,-2.9671,-2.9711,-2.9675,-2.9703,-2.971,-2.9718,-2.9729,-2.9517,-2.9716,-2.9715,-2.9714,-2.9714,-2.9713,0,-2.9601,-2.96,-2.9637,-2.9661,-2.9692,-2.9646,-2.9661,-2.969,-2.9737,-2.9747,-2.9776,-2.9826,-2.9863,-2.9851,-2.9884,-2.9918,-2.9898,-2.9928,-2.9926,-2.9927,-2.9759,-2.9739,-2.9944,-2.9944,-2.9944,-2.9944,-2.9944,-2.9944,-2.9715,-2.9789,-2.9773,-2.9851,-2.985,-2.99,-2.9913,-2.9928,-2.9936,-2.9994,-3.0024,-3.0016,-3.0017,-3.0049,-3.0081,-3.0077,-3.0092,-3.013,-3.0118,-2.9962,-2.9939,-2.9917,-2.9899,-3.0133,-3.0134,-3.0283,-3.0284,-3.0285]},{"header":{"parameterUnit":"m.s-1","parameterCategory":1,"la1":30.2991,"la2":30.254,"lo1":-89.0895,"lo2":-89.0444,"dy":0.0017,"dx":0.0017,"nx":28,"ny":28,"refTime":"2023-10-21T09:00:00:Z","depth":0,"parameterNumber":3,"parameterNumberName":"V-component_of_WINDS"},"data":[0,0,0,0,0,0,0,0,0,0,0,0,0,0,0,0,0,0,0,0,0,0,0,0,0,0,0,0,0,0,0,0,0,0,0,0,0,0,0,0,0,0,0,0,0,0,0,0,0,0,0,0,0,0,0,0,0,0,-3.4406,-3.4406,0,-3.4453,-3.4454,-3.4454,-3.44,-3.4398,-3.4396,-3.4394,-3.4439,-3.4441,-3.4445,0,0,0,0,0,0,0,0,0,0,0,0,0,-3.4265,-3.4267,-3.4406,-3.4407,-3.4407,-3.4453,-3.4454,-3.4454,-3.44,-3.4398,-3.4395,-3.4393,-3.4437,-3.4441,-3.4445,0,0,0,0,0,0,0,0,0,0,0,0,0,-3.432,-3.4268,-3.4406,-3.4386,-3.4385,-3.4453,-3.4454,-3.4454,-3.4401,-3.4398,-3.4395,-3.4392,-3.4436,-3.4441,-3.4445,-3.4534,0,0,-3.4459,-3.4461,0,0,0,0,0,0,0,0,-3.4317,-3.4325,-3.4388,-3.4387,-3.4386,-3.4418,-3.442,-3.4481,-3.4402,-3.4395,-3.4394,-3.439,-3.4434,-3.4438,-3.4454,-3.4537,-3.4538,-3.446,-3.4463,-3.4465,-3.4466,0,0,0,0,0,0,0,-3.4313,-3.4323,-3.4424,-3.4389,-3.4388,-3.4373,-3.4378,-3.4431,-3.443,-3.4395,-3.4391,-3.4398,-3.4433,-3.4449,-3.4454,-3.4539,-3.446,-3.4464,-3.4467,-3.4468,-3.4696,-3.4699,0,0,0,0,0,0,-3.4312,-3.432,-3.4423,-3.4426,-3.4344,-3.4378,-3.4383,-3.441,-3.443,-3.443,-3.44,-3.4395,-3.4443,-3.4449,-3.4456,-3.456,-3.4465,-3.4469,-3.4471,-3.4692,-3.4696,-3.47,0,0,0,0,0,0,-3.431,-3.4322,-3.4421,-3.4372,-3.4384,-3.4384,-3.4415,-3.4413,-3.443,-3.4434,-3.4433,-3.4418,-3.4441,-3.4449,-3.4515,-3.4561,-3.4471,-3.4475,-3.4689,-3.4694,-3.4698,-3.4771,0,0,0,0,0,0,-3.4306,-3.4321,-3.4356,-3.4373,-3.4386,-3.4481,-3.4418,-3.4416,-3.4438,-3.4432,-3.445,-3.445,-3.4439,-3.4509,-3.452,-3.4566,-3.4479,-3.4684,-3.4691,-3.4697,-3.4765,-3.4778,-3.479,0,0,0,0,0,-3.4301,-3.4375,-3.4359,-3.4371,-3.443,-3.4484,-3.4491,-3.4478,-3.4442,-3.4477,-3.4479,-3.445,-3.4555,-3.4516,-3.4528,-3.4576,-3.4681,-3.4689,-3.4696,-3.4759,-3.4776,-3.4789,0,0,0,0,0,0,-3.4362,-3.4376,-3.4359,-3.4441,-3.4462,-3.4475,-3.4518,-3.4496,-3.4527,-3.4519,-3.45,-3.4505,-3.4575,-3.4582,-3.4539,-3.4663,-3.4612,-3.4622,-3.4656,-3.4671,-3.4683,-3.468,-3.4483,0,0,0,0,0,-3.4385,-3.4429,-3.4439,-3.451,-3.4521,-3.4518,-3.4541,-3.4529,-3.455,-3.4558,-3.4565,-3.4585,-3.4622,-3.4647,-3.4682,-3.4766,-3.4768,-3.4805,-3.4817,-3.4827,-3.4836,-3.488,-3.4896,-3.4724,-3.4724,-3.4724,0,0,-3.4433,-3.4446,-3.4475,-3.4522,-3.4537,-3.4582,-3.4526,-3.4575,-3.4607,-3.4565,-3.4628,-3.4634,-3.4654,-3.473,-3.4763,-3.4738,-3.4884,-3.4837,-3.4845,-3.4848,-3.4889,-3.4905,-3.492,-3.4729,-3.4728,-3.4727,0,0,-3.4543,-3.4558,-3.4619,-3.4635,-3.4659,-3.4656,-3.467,-3.4687,-3.469,-3.4753,-3.4721,-3.4758,-3.4823,-3.4839,-3.4856,-3.4971,-3.4945,-3.4983,-3.5047,-3.509,-3.5104,-3.5115,-3.5156,-3.517,-3.4992,-3.4992,-3.4992,0,-3.4599,-3.4666,-3.4652,-3.4704,-3.4725,-3.4689,-3.4749,-3.4765,-3.4799,-3.4813,-3.4785,-3.4865,-3.4877,-3.4954,-3.4982,-3.4997,-3.5012,-3.498,-3.5103,-3.5115,-3.5126,-3.5164,-3.5179,-3.4996,-3.4996,-3.4995,-3.4995,0,-3.4734,-3.478,-3.4826,-3.4861,-3.4887,-3.4942,-3.4935,-3.4963,-3.4948,-3.4948,-3.5012,-3.5024,-3.506,-3.5078,-3.5064,-3.5154,-3.5137,-3.5106,-3.5055,-3.5147,-3.5182,-3.5197,-3.5003,-3.5001,-3.5,-3.4999,0,0,-3.4884,-3.4909,-3.4926,-3.4941,-3.4964,-3.4999,-3.5052,-3.5089,-3.5113,-3.5136,-3.518,-3.5235,-3.5207,-3.5225,-3.5213,-3.525,-3.534,-3.5215,-3.5215,-3.5237,-3.5438,-3.5461,-3.5478,-3.5322,-3.5325,-3.5327,-3.5436,0,-3.4993,-3.5087,-3.5076,-3.5165,-3.5207,-3.5174,-3.522,-3.5238,-3.5239,-3.5274,-3.5274,-3.5313,-3.5273,-3.5284,-3.532,-3.5321,-3.538,-3.5313,-3.5361,-3.5363,-3.5357,-3.5497,-3.5521,-3.5623,-3.545,-3.5452,-3.5454,0,-3.5134,-3.5164,-3.5258,-3.5274,-3.5291,-3.5333,-3.5365,-3.5399,-3.5419,-3.5416,-3.5438,-3.5418,-3.5469,-3.5417,-3.5487,-3.5443,-3.5461,-3.5465,-3.5468,-3.5472,-3.5414,-3.5503,-3.5655,-3.567,-3.5475,-3.5474,-3.5472,0,-3.5233,-3.5297,-3.5361,-3.5375,-3.5395,-3.5425,-3.5435,-3.5452,-3.5474,-3.5501,-3.5515,-3.5548,-3.5566,-3.5591,-3.558,-3.5543,-3.5651,-3.5598,-3.565,-3.565,-3.5674,-3.5673,-3.5831,-3.5687,-3.5687,-3.5687,-3.5686,0,-3.5357,-3.5415,-3.5406,-3.5445,-3.5509,-3.5495,-3.5558,-3.5563,-3.5578,-3.5617,-3.5589,-3.5626,-3.5609,-3.5644,-3.5636,-3.5694,-3.5703,-3.5701,-3.5698,-3.5704,-3.5704,-3.5715,-3.5708,-3.5691,-3.569,-3.5689,-3.5688,0,-3.5478,-3.5475,-3.5542,-3.5556,-3.5561,-3.5607,-3.5618,-3.5654,-3.5653,-3.5702,-3.5713,-3.571,-3.575,-3.5742,-3.5785,-3.5779,-3.5853,-3.5841,-3.5847,-3.5844,-3.5895,-3.589,-3.6066,-3.6088,-3.5931,-3.5932,-3.5934,0,-3.5557,-3.5601,-3.562,-3.5645,-3.5657,-3.5697,-3.572,-3.5706,-3.5731,-3.5756,-3.5789,-3.5826,-3.5856,-3.592,-3.5921,-3.5954,-3.5942,-3.6002,-3.5947,-3.5951,-3.5942,-3.594,-3.5944,-3.6012,-3.6014,-3.6016,-3.6017,0,-3.5697,-3.5693,-3.5728,-3.5762,-3.579,-3.5816,-3.5839,-3.586,-3.5849,-3.5877,-3.5918,-3.5941,-3.5985,-3.6022,-3.6053,-3.606,-3.6037,-3.6034,-3.6047,-3.6053,-3.6054,-3.6054,-3.5876,-3.603,-3.6029,-3.6028,-3.6027,-3.6026,-3.5799,-3.5837,-3.5856,-3.5895,-3.5911,-3.5933,-3.5968,-3.5971,-3.6005,-3.6041,-3.6031,-3.6077,-3.6094,-3.6132,-3.6144,-3.6178,-3.6156,-3.6176,-3.6181,-3.6186,-3.6192,-3.6049,-3.6184,-3.6184,-3.6183,-3.6183,-3.6183,0,-3.5937,-3.5948,-3.5984,-3.6018,-3.6049,-3.6024,-3.6048,-3.6075,-3.6117,-3.6135,-3.6164,-3.6211,-3.6246,-3.625,-3.6283,-3.631,-3.63,-3.632,-3.6317,-3.6319,-3.621,-3.6195,-3.6327,-3.6327,-3.6327,-3.6327,-3.6327,-3.6327,-3.6013,-3.6075,-3.6073,-3.6142,-3.6152,-3.6198,-3.6213,-3.6233,-3.6248,-3.6301,-3.6331,-3.6334,-3.6346,-3.638,-3.6411,-3.6411,-3.6424,-3.6447,-3.6443,-3.6341,-3.6327,-3.6313,-3.6299,-3.645,-3.6451,-3.6549,-3.655,-3.6551]}]]